Regional Weather Roundup
Issued by NWS

Home | Current Version | Previous Version | Graphics & Text | Print | Product List | Glossary On
Versions: 1 2 3 4 5 6 7 8 9 10 11 12 13 14 15 16 17 18 19 20 21 22 23 24 25 26 27 28 29 30 31 32 33 34 35 36 37 38 39 40 41 42 43 44 45 46 47 48 49 50
000
ASUS43 KLOT 280900
RWRIL

ILLINOIS REGIONAL WEATHER ROUNDUP
NATIONAL WEATHER SERVICE CHICAGO/ROMEOVILLE IL
300 AM CST SUN DEC 28 2014

NOTE: "FAIR" INDICATES FEW OR NO CLOUDS BELOW 12,000 FEET WITH NO
SIGNIFICANT WEATHER AND/OR OBSTRUCTIONS TO VISIBILITY.

* THESE STATIONS ARE NOT UNDER NWS QUALITY CONTROL. THEY ALSO MAY NOT
  REPORT WEATHER SUCH AS PRECIPITATION OR FOG.

ILZ001-002-007-009-015-016-024-281000-
NORTHWEST ILLINOIS

CITY           SKY/WX    TMP DP  RH WIND       PRES   REMARKS
MOLINE         CLEAR     20  15  81 W7        30.20S WCI  11
STERLING*      CLEAR     21  16  79 NW9       30.17R WCI  11
$$

ILZ003-004-008-010-011-017-018-281000-
NORTH CENTRAL ILLINOIS

CITY           SKY/WX    TMP DP  RH WIND       PRES   REMARKS
ROCKFORD       CLEAR     22  17  81 NW9       30.16F WCI  12
$$

ILZ005-006-012>014-019>023-281000-
NORTHEAST ILLINOIS

CITY           SKY/WX    TMP DP  RH WIND       PRES   REMARKS
CHICAGO-OHARE  CLOUDY    27  20  75 W12       30.11F WCI  17
CHICAGO-MIDWAY CLOUDY    32  24  72 W10       30.12S WCI  24
AURORA         CLOUDY    27  21  78 NW13      30.14S WCI  16
WAUKEGAN       PTCLDY    27  20  75 VRB3      30.09F
DUPAGE AIRPORT CLOUDY    28  21  75 W9        30.11F WCI  19
WHEELING       CLOUDY    28  20  71 NW10      30.13S WCI  19
NORTHERLY ISL    N/A     31  24  76 NW8         N/A  WCI  24
$$

LMZ740>746-281000-
SOUTHERN LAKE MICHIGAN

STATION/POSITION SKY/WX   TEMP    WIND        PRES    VSBY  WAVE
                          AIR SEA DIR/SP/G                  HT/PER
                          (F)     (DEG/KT/KT) (MB)    (MI)  (FT/S)
WAUKEGAN HARBOR            29     280/ 12/ 16   N/A
HARRISON CRIB              30     290/ 16/ 19   N/A
BURNHAM HARBOR             31     260/  8/ 13   N/A
CALUMET HARBOR             31     270/  5/ 11 1018.6F
MICHIGAN CITY              33     260/ 16/ 17   N/A
$$

ILZ025>027-034>036-040-047-049-050-058-095>099-281000-
WEST-CENTRAL ILLINOIS

CITY           SKY/WX    TMP DP  RH WIND       PRES   REMARKS
QUINCY         CLOUDY    27  21  78 NW9       30.21S WCI  18
MACOMB*        CLOUDY    28  24  82 W13       30.23R WCI  18
$$

ILZ028>032-037-038-041>044-048-051>054-059>061-281000-
CENTRAL ILLINOIS

CITY           SKY/WX    TMP DP  RH WIND       PRES   REMARKS
DECATUR        CLOUDY    29  24  82 W12       30.20R WCI  19
PEORIA         PTCLDY    27  20  75 NW7       30.20R WCI  19
LINCOLN*       MOCLDY    30  24  78 NW7       30.20S WCI  23
SPRINGFIELD    CLOUDY    30  23  75 NW9       30.21R WCI  22
TAYLORVILLE    NOT AVBL
$$

ILZ033-039-045-046-055>057-062-063-281000-
EAST-CENTRAL ILLINOIS

CITY           SKY/WX    TMP DP  RH WIND       PRES   REMARKS
CHAMPAIGN      CLOUDY    30  26  85 NW12      30.17R WCI  20
DANVILLE*      CLOUDY    30  26  86 NW8G16    30.13R WCI  22
MATTOON        CLOUDY    31  27  85 NW10      30.17R WCI  22
$$

ILZ079-100>102-281000-
SOUTHWEST ILLINOIS

CITY           SKY/WX    TMP DP  RH WIND       PRES   REMARKS
BELLEVILLE     CLOUDY    33  28  83 N9        30.21S WCI  25
CAHOKIA*       CLOUDY    34  27  75 N12       30.22S WCI  25
$$

ILZ064>066-069>071-074>076-080>082-084>086-088>090-092>094-281000-
SOUTH-CENTRAL ILLINOIS

CITY           SKY/WX    TMP DP  RH WIND       PRES   REMARKS
CARBONDALE     CLOUDY    36  31  82 N10       30.20R WCI  28
MT. VERNON     CLOUDY    34  27  75 N3        30.20R
$$

ILZ067-068-072-073-078-083-087-091-281000-
SOUTHEAST ILLINOIS

CITY           SKY/WX    TMP DP  RH WIND       PRES   REMARKS
LAWRENCEVILLE  CLOUDY    34  30  85 N10       30.18R WCI  26
ROBINSON*      PTCLDY    32  29  87 N7        30.18F WCI  26
$$

ABBREVIATIONS USED IN REMARKS
   TC - TEMPERATURE IN CELSIUS
  WCI - WIND CHILL INDEX
   HX - HEAT INDEX
  VSB - VISIBILITY
$$



USA.gov is the U.S. government's official web portal to all federal, state and local government web resources and services.